Location: Huberhof
(49.2050°N, 7.4980°E)
Time: 14:19:47
(UTC+00:00)

Daily predictions for brighter satellites

Satellite Brightness Start Highest point End
(mag) Time Altitude Azimuth Time Altitude Azimuth Time Altitude Azimuth
Cosmos 1328 4.4 16:42:54 10° NNW 16:46:49 62° W 16:50:42 10° S
Cosmos 2058 Rocket 3.9 16:43:03 10° SSE 16:46:59 31° E 16:50:58 10° NNE
ERBS 4.1 16:44:53 10° NW 16:47:32 21° N 16:50:11 10° NE
FALCON 9 DEB 3.3 16:45:03 10° SW 16:48:14 56° SSE 16:51:25 10° ENE
NOAA 12 4.1 16:43:08 10° SSE 16:48:26 80° ENE 16:53:48 10° NNW
CZ-4B R/B 3.4 16:44:18 10° SSE 16:49:54 85° WSW 16:55:26 10° NNW
ADEOS Rocket 3.4 16:44:24 10° NNE 16:50:52 88° WNW 16:58:04 10° SSW
Cosmos 1689 Rocket 3.8 16:51:19 10° ENE 16:53:00 14° E 16:54:39 10° SE
USA 281 3.3 16:47:20 10° SSE 16:53:55 87° WSW 17:00:33 10° NNW
FALCON 9 DEB 3.7 16:53:15 10° WNW 16:56:34 45° N 16:59:43 11° E
IRS-1C Rocket 4.4 16:52:02 10° SE 16:56:59 44° ENE 17:01:59 10° N
FALCON 9 DEB 3.0 16:54:36 10° SW 16:57:47 68° SSE 17:00:47 11° ENE
CZ-4C R/B 3.9 16:53:06 10° NW 16:58:22 26° NNE 17:04:25 10° ENE
Cosmos 2227 Rocket 2.3 16:52:53 10° NNW 16:58:31 60° ENE 17:04:06 10° SE
Cosmos 1892 3.5 16:55:54 10° N 16:59:22 30° ENE 17:02:48 10° SE
Cosmos 2263 Rocket 3.7 16:56:07 10° N 16:59:53 18° NE 17:03:25 11° ENE
Cosmos 1110 Rocket 4.1 16:55:54 10° SSW 17:01:09 81° WNW 17:06:24 10° NNE
Cosmos 1939 Rocket 3.3 16:58:25 10° SE 17:02:05 38° ENE 17:05:43 10° N
Cosmos 1302 Rocket 4.2 16:58:04 10° S 17:03:10 54° ESE 17:08:20 10° NNE
H-2A R/B 2.7 17:01:27 10° N 17:05:32 57° WNW 17:09:34 10° SSW
USA 307 2.9 17:01:47 10° WNW 17:06:05 70° NNE 17:10:16 10° ESE
COSMO-SKYMED 1 3.3 17:03:22 10° NNE 17:07:19 33° E 17:11:14 10° SSE
SAR-Lupe-4 4.1 17:05:42 10° NNE 17:09:04 37° E 17:12:25 10° SSE
Envisat 4.3 17:04:16 10° S 17:09:07 45° W 17:14:01 10° NNW
Cosmos 1300 2.6 17:07:15 10° S 17:11:03 85° E 17:14:54 10° N
USA 308 2.9 17:06:46 10° WNW 17:11:04 74° NNE 17:15:04 12° ESE
Cosmos 1486 Rocket 4.1 17:06:38 10° NNW 17:11:57 62° ENE 17:17:13 10° SE
Cosmos 1400 Rocket 3.0 17:08:44 10° S 17:12:44 54° E 17:16:43 10° NNE
CZ-4B R/B 1.1 17:09:54 10° NNE 17:13:07 71° ESE 17:16:14 10° S
Cosmos 1697 Rocket 3.5 17:09:35 10° SSE 17:14:17 28° ESE 17:19:00 10° NE
Cosmos 1825 3.5 17:12:04 10° NNE 17:14:57 20° ENE 17:17:29 12° ESE
ERS-2 2.0 17:13:15 10° NNE 17:16:55 86° ESE 17:20:34 10° SSW
Helios 1A Rocket 3.3 17:15:31 10° SE 17:19:24 42° ENE 17:23:16 10° N
Meteor 2-8 Rocket 4.4 17:15:01 10° S 17:21:01 62° E 17:27:05 10° NNE
YAOGAN 1 3.2 17:17:56 10° SE 17:21:48 33° ENE 17:25:43 10° N
BREEZE-M TANK 3.6 17:12:33 10° W 17:22:00 59° S 17:25:00 15° ESE
Cosmos 1503 Rocket 4.3 17:17:05 10° NNW 17:22:07 45° ENE 17:27:10 10° SE
S3M 4.4 17:16:44 10° SSE 17:22:19 39° E 17:27:59 10° NNE
Cosmos 1340 2.6 17:22:28 10° NNW 17:26:17 89° W 17:30:04 10° S
NOAA 11 4.3 17:21:18 10° SSE 17:26:45 79° WSW 17:32:13 10° NNW
SAR-Lupe-1 4.1 17:23:25 10° NNE 17:26:57 56° ESE 17:30:26 10° S
CZ-2D R/B 3.3 17:23:42 10° SSE 17:27:24 51° ENE 17:31:07 10° N
Cosmos 44 3.6 17:23:40 10° SW 17:28:11 65° NW 17:33:02 10° NE
Okean O Rocket 3.2 17:24:39 10° SSW 17:28:45 39° W 17:32:52 10° NNW
Cosmos 2228 4.0 17:25:21 10° SSW 17:29:28 49° WNW 17:33:40 10° N
CZ-4 R/B 1.6 17:26:34 10° SE 17:30:13 42° ENE 17:33:53 10° N
Cosmos 1726 Rocket 4.0 17:25:58 10° SSW 17:30:17 65° WNW 17:34:41 10° N
Cosmos 1346 Rocket 2.8 17:30:10 10° N 17:34:06 55° ENE 17:38:02 10° SSE
SL-4 R/B 1.7 17:31:03 10° WNW 17:34:35 69° NNE 17:36:33 26° E
Cosmos 2058 3.0 17:30:52 10° N 17:34:53 52° ENE 17:38:54 10° SSE
Cosmos 1354 Rocket 4.2 17:29:50 10° NNW 17:34:58 50° ENE 17:40:05 10° SE
Aureole 3 2.6 17:32:55 10° S 17:35:57 83° W 17:38:58 10° N
Cosmos 2151 4.2 17:34:24 10° NNE 17:37:31 22° ENE 17:37:31 22° ENE
Cosmos 1980 Rocket 3.2 17:33:37 10° SSE 17:37:59 24° ESE 17:39:22 21° E
Cosmos 2297 Rocket 2.7 17:32:25 10° NNW 17:38:01 63° WSW 17:43:36 10° SSE
PSLV R/B 4.0 17:35:22 10° NNE 17:39:29 54° E 17:43:32 10° S
In-Cosmos 22 Rocket 4.2 17:34:14 10° NNW 17:39:37 83° W 17:45:06 10° S
Cosmos 1992 Rocket 4.2 17:34:48 10° S 17:39:44 45° ESE 17:44:42 10° NE
Timation 1 Rocket 4.5 17:35:14 10° NNW 17:41:08 53° NE 17:46:16 14° SE
CZ-2C R/B 3.3 17:38:21 10° SSE 17:43:58 58° ENE 17:49:25 10° N
CSL-04 Debris 4.4 17:39:23 10° SE 17:44:33 46° ENE 17:49:45 10° N
Cosmos 1315 Rocket 3.1 17:42:45 10° SSE 17:46:31 44° E 17:50:22 10° NNE
Cosmos 1553 Rocket 3.9 17:44:14 10° S 17:50:34 84° E 17:56:51 10° N
Cosmos 220 Rocket 4.0 17:47:57 10° S 17:52:15 61° ESE 17:55:51 15° NNE
Ariane Rocket 4.3 17:53:41 21° NE 17:53:41 21° NE 17:57:07 10° N
Meteor 2-15 4.3 17:48:06 10° S 17:54:12 73° E 18:00:20 10° NNE
BREEZE-M R/B 3.5 17:51:01 10° W 17:54:52 87° S 17:59:00 25° ESE
SKYMED 2 3.6 17:51:10 10° NNE 17:55:33 85° WNW 17:59:53 10° SSW
USA 305 3.1 17:51:34 10° WNW 17:55:52 67° SSW 17:58:11 26° SE
Meteor 2-10 Rocket 3.4 17:51:09 10° S 17:56:23 70° E 18:01:28 10° NNE
Cosmos 1455 2.1 17:54:38 10° S 17:58:21 60° E 18:02:08 10° NNE
Cosmos 2360 4.4 17:55:30 10° S 18:00:59 49° ESE 18:04:36 21° NE
NOSS 3-4 (A) 3.9 17:54:51 10° NW 18:01:34 57° NE 18:05:39 27° ESE
NOSS 3-4 (C) 3.9 17:54:58 10° NW 18:01:40 56° NE 18:05:43 27° ESE
SeaSat 1 3.0 18:00:38 33° E 18:01:51 38° NE 18:06:24 10° NNW
USA 306 3.3 17:58:06 10° WNW 18:02:20 61° SW 18:04:25 28° SE
H-2A R/B 2.1 17:59:05 10° SSE 18:04:25 61° ENE 18:09:48 10° N
Okean-O 2.7 18:01:24 10° S 18:05:50 76° WSW 18:10:17 10° NNW
FALCON 9 DEB 3.3 18:04:31 10° W 18:07:41 52° NNW 18:07:57 50° N
MOS 1 Rocket 3.5 18:03:26 10° NNE 18:08:02 49° E 18:12:52 10° S
FALCON 9 DEB 3.4 18:06:30 10° W 18:09:37 50° NNW 18:09:47 49° N
Cosmos 2278 4.0 18:05:56 10° S 18:11:15 43° ESE 18:12:45 36° ENE
NOSS 3-3 (A) 3.8 18:06:18 10° SSW 18:12:07 71° SE 18:16:10 24° NE
Aureole 3 Rocket 4.4 18:08:00 10° SSW 18:12:12 48° WNW 18:18:04 10° N
NOSS 3-3 (C) 3.9 18:06:25 10° SSW 18:12:14 70° SE 18:16:14 24° NE
USA 215 3.7 18:10:10 29° ENE 18:13:15 50° NNE 18:19:31 10° WNW
Cosmos 1745 Rocket 4.2 18:08:58 10° NNW 18:15:16 76° W 18:21:35 10° S
ATLAS 5 CENTAUR R/B 4.0 18:12:32 10° NW 18:15:38 16° N 18:17:34 14° NNE
Cosmos 1408 3.4 18:14:53 10° NNW 18:18:27 51° W 18:22:02 10° S
Cosmos 2082 4.1 18:13:13 10° NNW 18:18:54 65° WSW 18:24:33 10° SSE
Lacrosse 5 2.6 18:14:24 10° NW 18:19:10 39° NNE 18:20:11 35° NE
Meteor 2-3 Rocket 4.1 18:13:50 10° N 18:19:16 41° ENE 18:19:36 41° E
GEOS 3 Rocket 3.6 18:17:20 38° ESE 18:19:23 72° NE 18:24:48 10° NW
Cosmos 44 Rocket 3.3 18:15:01 10° SSW 18:19:38 53° ESE 18:19:58 52° ESE
ARGOS 3.1 18:17:21 27° SE 18:20:17 62° ENE 18:25:39 10° N
ATLAS 2AS CENTAUR R/B 2.9 18:16:09 10° NW 18:23:42 60° NE 18:26:16 40° E
Cosmos 1689 Rocket 4.0 18:21:50 11° N 18:24:15 29° WNW 18:26:48 10° SW
FALCON 9 DEB 3.9 18:21:15 10° W 18:24:00 43° NW 18:24:00 43° NW
Cosmos 1656 4.3 18:19:01 10° SW 18:24:30 55° NW 18:30:05 10° NNE
ERBS 4.0 18:21:33 10° NW 18:23:42 25° N 18:23:42 25° N
SL-08 RB Rocket 4.4 18:26:13 37° NNE 18:26:13 37° NNE 18:29:21 10° N
Cosmos 1844 Rocket 4.3 18:28:21 10° N 18:31:40 19° NNE 18:31:40 19° NNE
Cosmos 1076 Rocket 4.2 18:28:41 10° NNW 18:32:51 54° W 18:36:59 10° S
FALCON 9 DEB 4.0 18:30:19 10° WNW 18:32:59 49° W 18:32:59 49° W
FALCON 9 DEB 4.5 18:30:52 10° W 18:33:07 34° NW 18:33:07 34° NW
Cosmos 2369 3.6 18:29:57 10° SSW 18:35:40 88° WNW 18:39:11 25° NNE
SJ 16-02 3.6 18:32:47 10° N 18:33:43 14° NNE 18:33:43 14° NNE
Cosmos 1777 Rocket 3.8 18:33:07 10° NNW 18:38:21 70° ENE 18:38:35 68° E
Cosmos 2184 Rocket 4.5 18:35:20 10° N 18:40:24 41° NE 18:40:24 41° NE
CSL-04 Rocket 3.9 18:36:10 10° S 18:41:42 71° WSW 18:47:13 10° NNW
Cosmos 2227 Rocket 4.3 18:37:36 10° NW 18:42:10 26° WSW 18:46:44 10° SSW
COSMO-SKYMED 1 4.4 18:39:37 10° N 18:43:25 30° WNW 18:47:13 10° SW
Meteor 2-17 Rocket 4.3 18:38:31 10° N 18:44:31 59° ENE 18:44:33 59° ENE
Cosmos 1709 Rocket 4.1 18:38:23 10° NNW 18:44:48 79° W 18:51:09 10° S
Cosmos 2263 Rocket 2.1 18:39:16 10° NNW 18:44:58 66° ENE 18:45:07 65° ENE
USA 307 4.2 18:42:04 10° WNW 18:45:56 33° SW 18:46:28 32° SSW
CZ-4C R/B 3.1 18:41:49 10° NW 18:48:28 51° NE 18:49:38 47° ENE
Cosmos 1825 3.7 18:47:06 10° NNW 18:50:35 35° W 18:52:23 22° SW
USA 308 4.3 18:47:05 10° WNW 18:50:52 31° SW 18:51:15 30° SSW
YAOGAN 1 4.4 18:54:09 10° SSW 18:57:55 29° W 19:01:44 10° NW
Cosmos 1697 Rocket 3.3 18:52:26 10° SW 18:57:56 55° NW 19:01:26 22° NNE
Cosmos 2074 Rocket 4.3 18:53:10 10° N 18:58:05 49° NNE 18:58:05 49° NNE
CZ-4 R/B 4.0 19:02:42 10° SW 19:05:27 18° W 19:08:13 10° NW
Cosmos 2315 Rocket 4.2 19:05:11 10° SSW 19:11:21 69° WNW 19:17:33 10° N
SL-4 R/B 4.1 19:10:36 10° WNW 19:12:08 22° W 19:12:08 22° W
Cosmos 1980 Rocket 2.5 19:15:55 10° SW 19:21:13 63° WNW 19:21:13 63° WNW
Ariane Rocket 4.3 19:33:54 35° NNW 19:33:54 35° NNW 19:36:55 10° NNW
SeaSat 1 3.8 19:40:26 36° W 19:40:26 36° W 19:44:01 10° NW
H-2A R/B 4.3 19:39:56 10° SW 19:44:14 23° W 19:48:33 10° NW
USA 215 3.7 19:57:31 57° NW 19:57:31 57° NW 20:02:34 10° WNW
ATLAS 5 CENTAUR R/B 4.3 19:57:35 10° NNW 19:59:06 17° NNW 19:59:06 17° NNW
Lacrosse 5 4.0 19:57:30 10° NW 19:59:23 23° NW 19:59:23 23° NW
ATLAS 2AS CENTAUR R/B 3.7 20:07:36 10° NW 20:13:44 41° WSW 20:13:44 41° WSW
Cosmos 2263 Rocket 4.4 20:23:59 10° NW 20:26:50 21° WNW 20:26:50 21° WNW
CZ-4C R/B 3.9 20:30:18 10° NW 20:34:49 41° WNW 20:34:49 41° WNW
